TimeCST,TemperatureF,Dew PointF,Humidity,Sea Level PressureIn,VisibilityMPH,Wind Direction,Wind SpeedMPH,Gust SpeedMPH,PrecipitationIn,Events,Conditions,WindDirDegrees,DateUTC
12:15 AM,44.6,42.8,93,30.15,10.0,Calm,Calm,-,N/A,,Clear,0,2012-11-22 06:15:00
12:35 AM,44.6,41.0,87,30.14,10.0,Calm,Calm,-,N/A,,Clear,0,2012-11-22 06:35:00
12:55 AM,42.8,41.0,93,30.13,10.0,Calm,Calm,-,N/A,,Clear,0,2012-11-22 06:55:00
1:15 AM,42.8,41.0,93,30.13,10.0,Calm,Calm,-,N/A,,Clear,0,2012-11-22 07:15:00
1:35 AM,44.6,42.8,93,30.12,10.0,Calm,Calm,-,N/A,,Clear,0,2012-11-22 07:35:00
1:55 AM,42.8,41.0,93,30.12,10.0,Calm,Calm,-,N/A,,Clear,0,2012-11-22 07:55:00
2:15 AM,42.8,41.0,93,30.12,10.0,Calm,Calm,-,N/A,,Clear,0,2012-11-22 08:15:00
2:35 AM,44.6,42.8,93,30.11,10.0,Calm,Calm,-,N/A,,Clear,0,2012-11-22 08:35:00
2:55 AM,44.6,42.8,93,30.11,10.0,Calm,Calm,-,N/A,,Clear,0,2012-11-22 08:55:00
3:15 AM,44.6,42.8,93,30.11,10.0,Calm,Calm,-,N/A,,Clear,0,2012-11-22 09:15:00
3:35 AM,48.2,44.6,87,30.11,10.0,Calm,Calm,-,N/A,,Clear,0,2012-11-22 09:35:00
3:55 AM,48.2,44.6,87,30.11,10.0,Calm,Calm,-,N/A,,Clear,0,2012-11-22 09:55:00
4:15 AM,48.2,42.8,82,30.10,10.0,Calm,Calm,-,N/A,,Clear,0,2012-11-22 10:15:00
4:35 AM,46.4,42.8,87,30.10,10.0,Calm,Calm,-,N/A,,Clear,0,2012-11-22 10:35:00
4:55 AM,48.2,44.6,87,30.10,10.0,Calm,Calm,-,N/A,,Clear,0,2012-11-22 10:55:00
5:15 AM,46.4,42.8,87,30.10,10.0,Calm,Calm,-,N/A,,Clear,0,2012-11-22 11:15:00
5:35 AM,46.4,44.6,93,30.10,10.0,Calm,Calm,-,N/A,,Clear,0,2012-11-22 11:35:00
5:55 AM,51.8,44.6,76,30.11,10.0,Calm,Calm,-,N/A,,Clear,0,2012-11-22 11:55:00
6:15 AM,48.2,44.6,87,30.11,10.0,Calm,Calm,-,N/A,,Clear,0,2012-11-22 12:15:00
6:35 AM,48.2,44.6,87,30.12,10.0,Calm,Calm,-,N/A,,Clear,0,2012-11-22 12:35:00
6:55 AM,50.0,44.6,82,30.12,10.0,Calm,Calm,-,N/A,,Clear,0,2012-11-22 12:55:00
7:15 AM,53.6,44.6,72,30.13,10.0,South,5.8,-,N/A,,Clear,180,2012-11-22 13:15:00
7:55 AM,59.0,44.6,59,30.13,10.0,South,12.7,17.3,N/A,,Clear,190,2012-11-22 13:55:00
8:15 AM,60.8,44.6,55,30.13,10.0,South,11.5,16.1,N/A,,Clear,190,2012-11-22 14:15:00
8:35 AM,60.8,42.8,52,30.13,10.0,South,8.1,-,N/A,,Clear,190,2012-11-22 14:35:00
8:55 AM,60.8,42.8,52,30.13,10.0,SSW,8.1,-,N/A,,Clear,200,2012-11-22 14:55:00
9:15 AM,62.6,44.6,52,30.13,10.0,South,5.8,-,N/A,,Clear,190,2012-11-22 15:15:00
9:35 AM,62.6,44.6,52,30.13,10.0,South,4.6,-,N/A,,Clear,180,2012-11-22 15:35:00
9:55 AM,64.4,44.6,49,30.13,10.0,Calm,Calm,-,N/A,,Clear,0,2012-11-22 15:55:00
10:15 AM,66.2,46.4,49,30.13,10.0,SSW,6.9,-,N/A,,Clear,200,2012-11-22 16:15:00
10:35 AM,66.2,46.4,49,30.12,10.0,SSW,4.6,-,N/A,,Clear,200,2012-11-22 16:35:00
10:55 AM,66.2,46.4,49,30.12,10.0,Calm,Calm,-,N/A,,Clear,0,2012-11-22 16:55:00
11:15 AM,68.0,46.4,46,30.11,10.0,South,6.9,-,N/A,,Clear,190,2012-11-22 17:15:00
11:35 AM,68.0,48.2,49,30.10,10.0,South,6.9,-,N/A,,Clear,190,2012-11-22 17:35:00
11:55 AM,69.8,48.2,46,30.08,10.0,South,4.6,-,N/A,,Clear,190,2012-11-22 17:55:00
12:15 PM,71.6,50.0,46,30.07,10.0,SSW,11.5,17.3,N/A,,Clear,200,2012-11-22 18:15:00
12:35 PM,71.6,50.0,46,30.06,10.0,SSW,11.5,20.7,N/A,,Clear,200,2012-11-22 18:35:00
12:55 PM,71.6,51.8,50,30.05,10.0,South,8.1,-,N/A,,Clear,190,2012-11-22 18:55:00
1:15 PM,71.6,51.8,50,30.04,10.0,South,10.4,-,N/A,,Clear,190,2012-11-22 19:15:00
1:35 PM,71.6,51.8,50,30.03,10.0,South,6.9,-,N/A,,Clear,190,2012-11-22 19:35:00
1:55 PM,71.6,51.8,50,30.03,10.0,South,5.8,-,N/A,,Clear,180,2012-11-22 19:55:00
2:15 PM,71.6,50.0,46,30.02,10.0,South,6.9,-,N/A,,Clear,170,2012-11-22 20:15:00
2:35 PM,71.6,50.0,46,30.01,10.0,Calm,Calm,-,N/A,,Clear,0,2012-11-22 20:35:00
2:55 PM,71.6,50.0,46,30.01,10.0,South,4.6,-,N/A,,Clear,170,2012-11-22 20:55:00
3:15 PM,71.6,51.8,50,30.01,10.0,South,5.8,-,N/A,,Clear,170,2012-11-22 21:15:00
3:35 PM,71.6,50.0,46,30.01,10.0,South,4.6,-,N/A,Rain,Light Rain,190,2012-11-22 21:35:00
3:55 PM,68.0,53.6,60,30.01,10.0,Calm,Calm,-,N/A,Rain,Rain,0,2012-11-22 21:55:00
4:15 PM,64.4,55.4,73,30.02,10.0,Calm,Calm,-,0.01,Rain,Light Rain,0,2012-11-22 22:15:00
4:35 PM,60.8,57.2,88,30.01,10.0,Calm,Calm,-,0.01,Rain,Light Rain,0,2012-11-22 22:35:00
4:55 PM,62.6,55.4,77,30.02,10.0,Calm,Calm,-,0.01,,Overcast,0,2012-11-22 22:55:00
5:15 PM,60.8,57.2,88,30.02,10.0,Calm,Calm,-,N/A,,Mostly Cloudy,0,2012-11-22 23:15:00
5:35 PM,60.8,57.2,88,30.02,10.0,Calm,Calm,-,N/A,Rain,Light Rain,0,2012-11-22 23:35:00
5:55 PM,60.8,59.0,94,30.03,10.0,Calm,Calm,-,N/A,,Scattered Clouds,0,2012-11-22 23:55:00
6:15 PM,59.0,57.2,94,30.04,10.0,Calm,Calm,-,N/A,,Scattered Clouds,0,2012-11-23 00:15:00
6:35 PM,64.4,51.8,64,30.06,10.0,SSW,8.1,-,N/A,,Mostly Cloudy,200,2012-11-23 00:35:00
6:55 PM,68.0,53.6,60,30.06,10.0,SSW,8.1,-,0.01,Rain,Light Rain,200,2012-11-23 00:55:00
7:15 PM,66.2,53.6,64,30.06,10.0,South,6.9,-,N/A,,Overcast,190,2012-11-23 01:15:00
7:35 PM,66.2,51.8,60,30.07,10.0,SSW,6.9,-,N/A,Rain,Light Rain,200,2012-11-23 01:35:00
7:55 PM,62.6,53.6,72,30.08,10.0,SW,3.5,-,N/A,Rain,Light Rain,220,2012-11-23 01:55:00
8:15 PM,62.6,53.6,72,30.08,10.0,SSW,3.5,-,N/A,Rain,Light Rain,200,2012-11-23 02:15:00
8:35 PM,62.6,53.6,72,30.09,10.0,SSW,3.5,-,N/A,,Mostly Cloudy,210,2012-11-23 02:35:00
8:55 PM,62.6,53.6,72,30.10,10.0,Calm,Calm,-,N/A,,Mostly Cloudy,0,2012-11-23 02:55:00
9:15 PM,62.6,53.6,72,30.11,10.0,Calm,Calm,-,N/A,Rain,Light Rain,0,2012-11-23 03:15:00
9:35 PM,62.6,53.6,72,30.11,10.0,Calm,Calm,-,N/A,Rain,Rain,0,2012-11-23 03:35:00
9:55 PM,60.8,55.4,82,30.11,10.0,South,4.6,-,N/A,,Overcast,190,2012-11-23 03:55:00
10:15 PM,60.8,55.4,82,30.12,10.0,Calm,Calm,-,N/A,,Light Drizzle,0,2012-11-23 04:15:00
10:35 PM,60.8,55.4,82,30.13,10.0,SW,3.5,-,N/A,,Overcast,230,2012-11-23 04:35:00
10:55 PM,60.8,55.4,82,30.13,10.0,Calm,Calm,-,N/A,,Scattered Clouds,0,2012-11-23 04:55:00
11:15 PM,59.0,53.6,82,30.13,10.0,SSW,3.5,-,N/A,,Clear,210,2012-11-23 05:15:00
11:35 PM,59.0,53.6,82,30.13,10.0,SW,3.5,-,N/A,,Clear,220,2012-11-23 05:35:00
11:55 PM,59.0,53.6,82,30.13,10.0,SW,3.5,-,N/A,,Scattered Clouds,220,2012-11-23 05:55:00